Miscellaneous Local Product
Issued by NWS North Platte, NE

Home | Current Version | Previous Version | Text Only | Print | Product List | Glossary On
Versions: 1 2 3 4 5 6 7 8 9 10 11 12 13 14 15 16 17 18 19 20 21 22 23 24 25 26 27 28 29 30 31 32 33 34 35 36 37 38 39 40 41 42 43 44 45 46 47 48 49 50
000
AXUS43 KLBF 221610
MISLBF


WESTERN AND NORTH CENTRAL NEBRASKA HOURLY WEATHER ROUNDUP
NATIONAL WEATHER SERVICE NORTH PLATTE NE
1100 AM CDT WED MAR 22 2017

NOTE: "FAIR" INDICATES FEW OR NO CLOUDS BELOW 12,000 FEET WITH NO
SIGNIFICANT WEATHER AND/OR OBSTRUCTIONS TO VISIBILITY.

NOTE: STATIONS NOT REPORTING VARIABLES SUCH AS SKY/WEATHER OR
PRESSURE ARE PROVIDED BY RAWS AND APRS NETWORKS AND ARE NOT UNDER
NATIONAL WEATHER SERVICE QUALITY CONTROL.

...OBSERVATIONS IN AND NEAR THE EASTERN PANHANDLE OF NEBRASKA...

CITY           SKY/WX    TMP DP  RH WIND       PRES   REMARKS
PINE RIDGE     CLOUDY    45  36  70 S29G46    29.96F
CHADRON        CLOUDY    48  34  58 S30G36    29.95F
ALLIANCE       CLOUDY    43  33  68 S22G30    30.03F
SIDNEY         MOSUNNY   43  33  68 S26G36    30.06F
CRESCENT LAKE    N/A     40  30  67 S18G28      N/A  WCI  31
$$

...OBSERVATIONS IN NORTHERN NEBRASKA AND FAR SOUTHERN SOUTH DAKOTA...

CITY           SKY/WX    TMP DP  RH WIND       PRES   REMARKS
WINNER         CLOUDY    36  29  75 S24G36    30.18F WCI  24
VALENTINE      CLOUDY    38  28  67 S20G29    30.14F WCI  28
THEDFORD       CLOUDY    39  27  61 S22       30.17F WCI  28
AINSWORTH      CLOUDY    34  30  85 S18G26    30.18F WCI  23
O`NEILL        CLOUDY    33  27  80 SE16      30.27F WCI  22
ORD            CLOUDY    37  24  59 S16G24    30.27F WCI  28
BROKEN BOW     CLOUDY    39  26  59 S18       30.22F WCI  30
VALENTINE NWR    N/A     33  27  77 S16G23      N/A  WCI  22
HALSEY           N/A     36  23  59 S10G23      N/A  WCI  28
BUTTE            N/A     31  26  82 SE20G26     N/A  WCI  19
CHAMBERS         N/A     34  28  77 SE9         N/A  WCI  27
EWING            N/A     33  28  81 SE8G15      N/A  WCI  26
$$

...OBSERVATIONS IN SOUTHWEST NEBRASKA AND FAR NORTHEAST COLORADO...

CITY           SKY/WX    TMP DP  RH WIND       PRES   REMARKS
WRAY           CLOUDY    45  32  61 S18G25    30.14F
HOLYOKE        PTSUNNY   46  34  61 S25G31    30.12F
IMPERIAL       MOSUNNY   43  27  53 S20G25    30.16F
OGALLALA       CLOUDY    44  28  52 S21       30.14F
NORTH PLATTE   CLOUDY    40  24  53 S18G24    30.19F WCI  31
MCCOOK         CLOUDY    39  25  57 SE14      30.22F WCI  31
LEXINGTON      CLOUDY    40  24  53 SE12      30.25F WCI  33
STAPLETON        N/A     37  24  60 S3          N/A
GOTHENBURG       N/A     37  22  56 SE12        N/A  WCI  29
CALLAWAY         N/A     36  26  65 S25         N/A  WCI  24
$$

...OBSERVATIONS IN CENTRAL LINCOLN COUNTY AREA...

CITY           SKY/WX    TMP DP  RH WIND       PRES   REMARKS
N.P. AIRPORT   CLOUDY    40  24  53 S18G24    30.19F WCI  31
N.P. DOWNTOWN    N/A     38  27  63 SE9G18      N/A  WCI  31
N.P. SOUTHEAST   N/A     37  25  63 S9G17       N/A  WCI  30
N.P. HILLCREST   N/A     38  27  63 S12G20      N/A  WCI  30
$$

...SOME OBSERVATIONS FROM AROUND THE REGION...

CITY           SKY/WX    TMP DP  RH WIND       PRES   REMARKS
DENVER         CLOUDY    45  33  63 NW3       30.02F
LIMON          CLOUDY    43  35  73 S23       30.10F
ASPEN          CLOUDY    59  14  17 SW14G22   30.10R
LARAMIE        CLOUDY    57  25  29 SW23G32   30.00S
GILLETTE       CLOUDY    45  35  68 S16G22    29.82R
CHEYENNE       CLOUDY    42  31  64 S9        30.01F
SCOTTSBLUFF    CLOUDY    48  29  47 S17G23    30.01F
GRAND ISLAND   CLOUDY    39  24  55 SE14      30.31F WCI  31
OMAHA          PTSUNNY   36  22  56 SE6       30.44R WCI  31
SIOUX FALLS    CLOUDY    31  17  56 S15       30.41S WCI  20
PIERRE         PTSUNNY   34  28  79 SE16G29   30.11F WCI  24
RAPID CITY     CLOUDY    44  35  70 S29G39    29.88F
BISMARCK       CLOUDY    34  23  64 S28G37    30.10F WCI  21
KANSAS CITY    PTSUNNY   47  23  38 E15       30.37R
HILL CITY      CLOUDY    44  25  47 SE10      30.27F
WICHITA        CLOUDY    50  28  42 E10       30.27R
DODGE CITY     CLOUDY    46  27  47 E12       30.24S
OKLAHOMA CITY  MOSUNNY   61  45  55 NE13      30.17R
DALLAS         PTSUNNY   75  65  70 S14       30.09S
AMARILLO       CLOUDY    49  40  71 E9        30.20F
$$




USA.gov is the U.S. government's official web portal to all federal, state and local government web resources and services.